| time (UTC) | temp C | wind direction | speed KPH | gust KPH | rain 1hr cm | rain 24hr cm | rain mn cm | humidity % | barometer mb |
| 20260831134837 | 26 | 153 | 1.6 | 9.7 | 0.00 | 0.00 | 0.00 | 87 | 1018.1 |
| 20260831134107 | 26 | 152 | 1.6 | 9.7 | 0.00 | 0.00 | 0.00 | 87 | 1018.1 |
| 20260831133835 | 26 | 152 | 1.6 | 8.0 | 0.00 | 0.00 | 0.00 | 87 | 1017.9 |
| 20260831133105 | 26 | 148 | 1.6 | 8.0 | 0.00 | 0.00 | 0.00 | 88 | 1017.9 |
| 20260831132607 | 26 | 148 | 1.6 | 6.4 | 0.00 | 0.00 | 0.00 | 88 | 1017.8 |
| 20260831132106 | 26 | 148 | 1.6 | 4.8 | 0.00 | 0.00 | 0.00 | 88 | 1017.8 |
| 20260831131602 | 25 | 148 | 0.0 | 4.8 | 0.00 | 0.00 | 0.00 | 88 | 1017.8 |
| 20260831131055 | 25 | 148 | 0.0 | 4.8 | 0.00 | 0.00 | 0.00 | 88 | 1017.8 |
| 20260831130549 | 25 | 148 | 0.0 | 4.8 | 0.00 | 0.00 | 0.00 | 89 | 1017.8 |
| 20260831130043 | 25 | 148 | 0.0 | 4.8 | 0.00 | 0.00 | 0.00 | 89 | 1017.7 |
| 20260831125537 | 25 | 148 | 0.0 | 3.2 | 0.00 | 0.00 | 0.00 | 89 | 1017.7 |
| 20260831125030 | 25 | 148 | 1.6 | 4.8 | 0.00 | 0.00 | 0.00 | 89 | 1017.6 |
| 20260831124524 | 25 | 148 | 1.6 | 4.8 | 0.00 | 0.00 | 0.00 | 89 | 1017.6 |
| 20260831124019 | 25 | 147 | 1.6 | 6.4 | 0.00 | 0.00 | 0.00 | 89 | 1017.5 |
| 20260831123513 | 25 | 213 | 1.6 | 6.4 | 0.00 | 0.00 | 0.00 | 88 | 1017.4 |
| 20260831123237 | 25 | 213 | 1.6 | 4.8 | 0.00 | 0.00 | 0.00 | 88 | 1017.4 |
| 20260831122501 | 25 | 213 | 1.6 | 4.8 | 0.00 | 0.00 | 0.00 | 88 | 1017.4 |
| 20260831121955 | 25 | 213 | 1.6 | 4.8 | 0.00 | 0.00 | 0.00 | 88 | 1017.3 |
| 20260831121449 | 25 | 213 | 1.6 | 6.4 | 0.00 | 0.00 | 0.00 | 88 | 1017.3 |
| 20260831120942 | 25 | 213 | 1.6 | 6.4 | 0.00 | 0.00 | 0.00 | 88 | 1017.4 |
| 20260831120436 | 25 | 213 | 1.6 | 6.4 | 0.00 | 0.00 | 0.00 | 88 | 1017.3 |
| 20260831120201 | 25 | 213 | 1.6 | 6.4 | 0.00 | 0.00 | 0.00 | 88 | 1017.3 |
| 20260831115425 | 25 | 213 | 1.6 | 4.8 | 0.00 | 0.00 | 0.00 | 88 | 1017.2 |
| 20260831114919 | 25 | 213 | 1.6 | 6.4 | 0.00 | 0.00 | 0.00 | 88 | 1017.3 |
| 20260831114413 | 25 | 215 | 1.6 | 6.4 | 0.00 | 0.00 | 0.00 | 88 | 1017.3 |
| 20260831113907 | 25 | 219 | 1.6 | 6.4 | 0.00 | 0.00 | 0.00 | 88 | 1017.3 |
| 20260831113401 | 25 | 221 | 0.0 | 6.4 | 0.00 | 0.00 | 0.00 | 88 | 1017.1 |
| 20260831112854 | 25 | 223 | 1.6 | 6.4 | 0.00 | 0.00 | 0.00 | 88 | 1017.2 |
| 20260831112348 | 25 | 223 | 1.6 | 6.4 | 0.00 | 0.00 | 0.00 | 87 | 1017.2 |
| 20260831111843 | 25 | 223 | 0.0 | 6.4 | 0.00 | 0.00 | 0.00 | 87 | 1017.3 |
| 20260831111609 | 25 | 224 | 1.6 | 8.0 | 0.00 | 0.00 | 0.00 | 87 | 1017.2 |
| 20260831110830 | 25 | 227 | 3.2 | 8.0 | 0.00 | 0.00 | 0.00 | 87 | 1017.3 |
| 20260831110324 | 25 | 194 | 1.6 | 8.0 | 0.00 | 0.00 | 0.00 | 87 | 1017.3 |
| 20260831110051 | 25 | 196 | 1.6 | 4.8 | 0.00 | 0.00 | 0.00 | 87 | 1017.2 |
| 20260831105312 | 25 | 196 | 1.6 | 4.8 | 0.00 | 0.00 | 0.00 | 87 | 1017.4 |
| 20260831104806 | 25 | 194 | 1.6 | 8.0 | 0.00 | 0.00 | 0.00 | 87 | 1017.3 |
| 20260831104300 | 25 | 195 | 3.2 | 11.3 | 0.00 | 0.00 | 0.00 | 86 | 1017.4 |
| 20260831103754 | 25 | 170 | 3.2 | 11.3 | 0.00 | 0.00 | 0.00 | 86 | 1017.4 |
| 20260831103249 | 25 | 222 | 3.2 | 11.3 | 0.00 | 0.00 | 0.00 | 86 | 1017.3 |
| 20260831102743 | 25 | 184 | 3.2 | 11.3 | 0.00 | 0.00 | 0.00 | 86 | 1017.4 |
| 20260831102237 | 25 | 165 | 3.2 | 11.3 | 0.00 | 0.00 | 0.00 | 86 | 1017.4 |
| 20260831102001 | 25 | 159 | 3.2 | 11.3 | 0.00 | 0.00 | 0.00 | 86 | 1017.4 |
| 20260831101225 | 25 | 192 | 3.2 | 11.3 | 0.00 | 0.00 | 0.00 | 86 | 1017.4 |
| 20260831100216 | 25 | 180 | 1.6 | 11.3 | 0.00 | 0.00 | 0.00 | 86 | 1017.4 |
| 20260831095714 | 25 | 179 | 3.2 | 11.3 | 0.00 | 0.00 | 0.00 | 86 | 1017.4 |
| 20260831095214 | 25 | 155 | 3.2 | 16.1 | 0.00 | 0.00 | 0.00 | 86 | 1017.4 |
| 20260831094714 | 25 | 169 | 3.2 | 16.1 | 0.00 | 0.00 | 0.00 | 86 | 1017.4 |
| 20260831094444 | 25 | 150 | 3.2 | 14.5 | 0.00 | 0.00 | 0.00 | 86 | 1017.4 |
| 20260831093714 | 25 | 226 | 3.2 | 12.9 | 0.00 | 0.00 | 0.00 | 86 | 1017.4 |
| 20260831093214 | 25 | 229 | 4.8 | 12.9 | 0.00 | 0.00 | 0.00 | 86 | 1017.3 |
| 20260831092714 | 25 | 194 | 3.2 | 14.5 | 0.00 | 0.00 | 0.00 | 86 | 1017.3 |
| 20260831092444 | 25 | 169 | 3.2 | 14.5 | 0.00 | 0.00 | 0.00 | 86 | 1017.3 |
| 20260831091717 | 25 | 197 | 3.2 | 14.5 | 0.00 | 0.00 | 0.00 | 86 | 1017.3 |
| 20260831091214 | 25 | 207 | 3.2 | 14.5 | 0.00 | 0.00 | 0.00 | 86 | 1017.3 |
| 20260831090714 | 25 | 162 | 3.2 | 11.3 | 0.00 | 0.00 | 0.00 | 86 | 1017.3 |
| 20260831090214 | 25 | 162 | 4.8 | 14.5 | 0.00 | 0.00 | 0.00 | 86 | 1017.3 |
| 20260831085714 | 25 | 164 | 3.2 | 14.5 | 0.00 | 0.00 | 0.00 | 86 | 1017.3 |
| 20260831085212 | 25 | 145 | 3.2 | 11.3 | 0.00 | 0.00 | 0.00 | 86 | 1017.3 |
| 20260831084710 | 25 | 225 | 3.2 | 11.3 | 0.00 | 0.00 | 0.00 | 86 | 1017.3 |
| 20260831084210 | 25 | 179 | 3.2 | 9.7 | 0.00 | 0.00 | 0.00 | 86 | 1017.4 |
| 20260831083706 | 25 | 179 | 3.2 | 9.7 | 0.00 | 0.00 | 0.00 | 86 | 1017.3 |
| 20260831083205 | 25 | 186 | 3.2 | 11.3 | 0.00 | 0.00 | 0.00 | 86 | 1017.3 |
| 20260831082705 | 25 | 233 | 3.2 | 11.3 | 0.00 | 0.00 | 0.00 | 86 | 1017.4 |
| 20260831082206 | 25 | 161 | 1.6 | 11.3 | 0.00 | 0.00 | 0.00 | 86 | 1017.4 |
| 20260831081706 | 25 | 167 | 1.6 | 11.3 | 0.00 | 0.00 | 0.00 | 86 | 1017.4 |
| 20260831081206 | 25 | 155 | 3.2 | 11.3 | 0.00 | 0.00 | 0.00 | 86 | 1017.4 |
| 20260831080706 | 25 | 274 | 3.2 | 11.3 | 0.00 | 0.00 | 0.00 | 86 | 1017.5 |
| 20260831080437 | 25 | 159 | 1.6 | 9.7 | 0.00 | 0.00 | 0.00 | 85 | 1017.4 |
| 20260831075705 | 25 | 159 | 1.6 | 9.7 | 0.00 | 0.00 | 0.00 | 85 | 1017.5 |
| 20260831075202 | 25 | 159 | 3.2 | 9.7 | 0.00 | 0.00 | 0.00 | 85 | 1017.5 |
| 20260831074702 | 25 | 159 | 3.2 | 9.7 | 0.00 | 0.00 | 0.00 | 85 | 1017.5 |
| 20260831074433 | 25 | 169 | 3.2 | 11.3 | 0.00 | 0.00 | 0.00 | 84 | 1017.5 |
| 20260831073702 | 25 | 171 | 3.2 | 11.3 | 0.00 | 0.00 | 0.00 | 84 | 1017.5 |
| 20260831073202 | 26 | 178 | 3.2 | 8.0 | 0.00 | 0.00 | 0.00 | 84 | 1017.5 |
| 20260831072933 | 26 | 168 | 3.2 | 9.7 | 0.00 | 0.00 | 0.00 | 83 | 1017.6 |
| 20260831072202 | 26 | 167 | 3.2 | 9.7 | 0.00 | 0.00 | 0.00 | 83 | 1017.6 |
| 20260831071933 | 26 | 165 | 3.2 | 9.7 | 0.00 | 0.00 | 0.00 | 83 | 1017.5 |
| 20260831071200 | 26 | 163 | 1.6 | 9.7 | 0.00 | 0.00 | 0.00 | 83 | 1017.6 |
| 20260831070701 | 26 | 164 | 1.6 | 9.7 | 0.00 | 0.00 | 0.00 | 82 | 1017.6 |
| 20260831070155 | 26 | 164 | 1.6 | 8.0 | 0.00 | 0.00 | 0.00 | 82 | 1017.5 |
| 20260831065649 | 26 | 163 | 1.6 | 16.1 | 0.00 | 0.00 | 0.00 | 82 | 1017.6 |
| 20260831065144 | 26 | 164 | 3.2 | 16.1 | 0.00 | 0.00 | 0.00 | 81 | 1017.6 |
| 20260831064638 | 26 | 153 | 3.2 | 12.9 | 0.00 | 0.00 | 0.00 | 81 | 1017.6 |
| 20260831064132 | 26 | 159 | 3.2 | 9.7 | 0.00 | 0.00 | 0.00 | 80 | 1017.6 |
| 20260831063625 | 26 | 178 | 3.2 | 9.7 | 0.00 | 0.00 | 0.00 | 80 | 1017.7 |
| 20260831063352 | 26 | 164 | 3.2 | 12.9 | 0.00 | 0.00 | 0.00 | 80 | 1017.6 |
| 20260831062613 | 26 | 159 | 3.2 | 12.9 | 0.00 | 0.00 | 0.00 | 79 | 1017.6 |
| 20260831062107 | 26 | 173 | 3.2 | 12.9 | 0.00 | 0.00 | 0.00 | 79 | 1017.5 |
| 20260831061601 | 26 | 171 | 1.6 | 12.9 | 0.00 | 0.00 | 0.00 | 79 | 1017.7 |
| 20260831061056 | 26 | 218 | 1.6 | 11.3 | 0.00 | 0.00 | 0.00 | 78 | 1017.5 |
| 20260831060044 | 26 | 144 | 1.6 | 12.9 | 0.00 | 0.00 | 0.00 | 77 | 1017.5 |
| 20260831055538 | 27 | 98 | 1.6 | 12.9 | 0.00 | 0.00 | 0.00 | 76 | 1017.5 |
| 20260831055031 | 27 | 154 | 3.2 | 9.7 | 0.00 | 0.00 | 0.00 | 76 | 1017.6 |
| 20260831054526 | 27 | 162 | 3.2 | 14.5 | 0.00 | 0.00 | 0.00 | 76 | 1017.6 |
| 20260831054250 | 27 | 157 | 3.2 | 14.5 | 0.00 | 0.00 | 0.00 | 75 | 1017.5 |
| 20260831053514 | 27 | 167 | 3.2 | 16.1 | 0.00 | 0.00 | 0.00 | 74 | 1017.4 |
| 20260831053007 | 27 | 144 | 4.8 | 16.1 | 0.00 | 0.00 | 0.00 | 73 | 1017.4 |
| 20260831052501 | 27 | 102 | 3.2 | 12.9 | 0.00 | 0.00 | 0.00 | 72 | 1017.3 |
| 20260831052227 | 27 | 158 | 3.2 | 14.5 | 0.00 | 0.00 | 0.00 | 72 | 1017.3 |
| 20260831051449 | 27 | 149 | 3.2 | 14.5 | 0.00 | 0.00 | 0.00 | 71 | 1017.2 |
| 20260831050437 | 27 | 165 | 1.6 | 9.7 | 0.00 | 0.00 | 0.00 | 69 | 1017.3 |
| 20260831045932 | 28 | 152 | 1.6 | 9.7 | 0.00 | 0.00 | 0.00 | 68 | 1017.3 |
| 20260831045430 | 28 | 151 | 3.2 | 11.3 | 0.00 | 0.00 | 0.00 | 68 | 1017.2 |
| 20260831044930 | 28 | 134 | 3.2 | 11.3 | 0.00 | 0.00 | 0.00 | 67 | 1017.1 |
| 20260831044429 | 28 | 116 | 3.2 | 16.1 | 0.00 | 0.00 | 0.00 | 67 | 1017.1 |
| 20260831044159 | 28 | 136 | 3.2 | 16.1 | 0.00 | 0.00 | 0.00 | 67 | 1017.1 |
| 20260831043427 | 28 | 159 | 4.8 | 16.1 | 0.00 | 0.00 | 0.00 | 66 | 1017.1 |
| 20260831042926 | 28 | 196 | 6.4 | 16.1 | 0.00 | 0.00 | 0.00 | 66 | 1017.2 |
| 20260831042427 | 28 | 174 | 4.8 | 16.1 | 0.00 | 0.00 | 0.00 | 66 | 1017.1 |
| 20260831042158 | 28 | 164 | 6.4 | 20.9 | 0.00 | 0.00 | 0.00 | 66 | 1017.0 |
| 20260831041426 | 28 | 168 | 6.4 | 20.9 | 0.00 | 0.00 | 0.00 | 66 | 1016.9 |
| 20260831041157 | 29 | 121 | 4.8 | 12.9 | 0.00 | 0.00 | 0.00 | 65 | 1017.0 |
| 20260831040426 | 29 | 74 | 3.2 | 14.5 | 0.00 | 0.00 | 0.00 | 64 | 1016.9 |
| 20260831035927 | 29 | 121 | 4.8 | 14.5 | 0.00 | 0.00 | 0.00 | 64 | 1016.7 |
| 20260831035427 | 29 | 144 | 4.8 | 12.9 | 0.00 | 0.00 | 0.00 | 64 | 1016.6 |
| 20260831034926 | 29 | 146 | 4.8 | 11.3 | 0.00 | 0.00 | 0.00 | 63 | 1016.6 |
| 20260831034426 | 29 | 123 | 3.2 | 14.5 | 0.00 | 0.00 | 0.00 | 63 | 1016.6 |
| 20260831033926 | 29 | 127 | 3.2 | 14.5 | 0.00 | 0.00 | 0.00 | 63 | 1016.6 |
| 20260831033427 | 30 | 128 | 3.2 | 9.7 | 0.00 | 0.00 | 0.00 | 63 | 1016.6 |
| 20260831032925 | 30 | 115 | 3.2 | 19.3 | 0.00 | 0.00 | 0.00 | 63 | 1016.5 |
| 20260831032420 | 30 | 182 | 4.8 | 19.3 | 0.00 | 0.00 | 0.00 | 63 | 1016.5 |
| 20260831031914 | 30 | 163 | 4.8 | 16.1 | 0.00 | 0.00 | 0.00 | 63 | 1016.5 |
| 20260831031407 | 30 | 125 | 4.8 | 11.3 | 0.00 | 0.00 | 0.00 | 63 | 1016.5 |
| 20260831030902 | 30 | 125 | 3.2 | 14.5 | 0.00 | 0.00 | 0.00 | 63 | 1016.3 |
| 20260831030635 | 30 | 165 | 3.2 | 14.5 | 0.00 | 0.00 | 0.00 | 63 | 1016.2 |
| 20260831025853 | 30 | 175 | 3.2 | 14.5 | 0.00 | 0.00 | 0.00 | 63 | 1016.2 |
| 20260831025353 | 30 | 176 | 3.2 | 14.5 | 0.00 | 0.00 | 0.00 | 63 | 1016.1 |
| 20260831024853 | 30 | 138 | 3.2 | 14.5 | 0.00 | 0.00 | 0.00 | 62 | 1016.0 |
| 20260831024352 | 30 | 133 | 3.2 | 9.7 | 0.00 | 0.00 | 0.00 | 63 | 1015.9 |
| 20260831023852 | 30 | 152 | 4.8 | 12.9 | 0.00 | 0.00 | 0.00 | 62 | 1015.8 |
| 20260831023351 | 31 | 167 | 4.8 | 16.1 | 0.00 | 0.00 | 0.00 | 62 | 1015.9 |
| 20260831022848 | 31 | 111 | 4.8 | 16.1 | 0.00 | 0.00 | 0.00 | 62 | 1015.7 |
| 20260831022349 | 31 | 105 | 3.2 | 14.5 | 0.00 | 0.00 | 0.00 | 62 | 1015.4 |
| 20260831021848 | 31 | 128 | 3.2 | 11.3 | 0.00 | 0.00 | 0.00 | 61 | 1015.3 |
| 20260831021347 | 31 | 131 | 3.2 | 11.3 | 0.00 | 0.00 | 0.00 | 61 | 1015.0 |
| 20260831020849 | 31 | 137 | 3.2 | 16.1 | 0.00 | 0.00 | 0.00 | 60 | 1015.0 |
| 20260831020346 | 31 | 185 | 3.2 | 16.1 | 0.00 | 0.00 | 0.00 | 60 | 1014.9 |
| 20260831015846 | 31 | 101 | 3.2 | 14.5 | 0.00 | 0.00 | 0.00 | 59 | 1014.9 |
| 20260831015618 | 31 | 154 | 3.2 | 12.9 | 0.00 | 0.00 | 0.00 | 59 | 1014.8 |
| 20260831014847 | 31 | 123 | 4.8 | 14.5 | 0.00 | 0.00 | 0.00 | 59 | 1014.8 |
| 20260831014345 | 31 | 128 | 4.8 | 14.5 | 0.00 | 0.00 | 0.00 | 58 | 1014.7 |
| 20260831013843 | 31 | 132 | 4.8 | 14.5 | 0.00 | 0.00 | 0.00 | 58 | 1014.6 |
| 20260831013338 | 31 | 157 | 3.2 | 12.9 | 0.00 | 0.00 | 0.00 | 57 | 1014.6 |
| 20260831012831 | 31 | 128 | 1.6 | 12.9 | 0.00 | 0.00 | 0.00 | 56 | 1014.4 |
| 20260831012327 | 31 | 107 | 0.0 | 6.4 | 0.00 | 0.00 | 0.00 | 54 | 1014.3 |
| 20260831011820 | 32 | 164 | 0.0 | 0.0 | 0.00 | 0.00 | 0.00 | 53 | 1014.3 |
| 20260831011314 | 32 | 164 | 0.0 | 0.0 | 0.00 | 0.00 | 0.00 | 53 | 1014.3 |
| 20260831010808 | 32 | 164 | 0.0 | 0.0 | 0.00 | 0.00 | 0.00 | 52 | 1014.3 |
| 20260831010303 | 32 | 164 | 0.0 | 0.0 | 0.00 | 0.00 | 0.00 | 52 | 1014.2 |
| 20260831005756 | 32 | 164 | 0.0 | 0.0 | 0.00 | 0.00 | 0.00 | 52 | 1014.2 |
| 20260831005250 | 32 | 164 | 0.0 | 0.0 | 0.00 | 0.00 | 0.00 | 51 | 1014.2 |
| 20260831004744 | 33 | 164 | 0.0 | 0.0 | 0.00 | 0.00 | 0.00 | 50 | 1014.1 |
| 20260831004238 | 33 | 164 | 0.0 | 1.6 | 0.00 | 0.00 | 0.00 | 50 | 1014.1 |
| 20260831003732 | 33 | 164 | 0.0 | 1.6 | 0.00 | 0.00 | 0.00 | 49 | 1014.0 |
| 20260831003226 | 33 | 164 | 0.0 | 8.0 | 0.00 | 0.00 | 0.00 | 49 | 1014.0 |
| 20260831002719 | 33 | 164 | 1.6 | 8.0 | 0.00 | 0.00 | 0.00 | 49 | 1014.0 |
| 20260831002214 | 33 | 164 | 1.6 | 8.0 | 0.00 | 0.00 | 0.00 | 48 | 1014.0 |
| 20260831001708 | 33 | 164 | 1.6 | 8.0 | 0.00 | 0.00 | 0.00 | 48 | 1014.0 |
| 20260831001432 | 33 | 165 | 1.6 | 11.3 | 0.00 | 0.00 | 0.00 | 47 | 1014.0 |
| 20260831000656 | 33 | 164 | 3.2 | 11.3 | 0.00 | 0.00 | 0.00 | 47 | 1014.0 |
| 20260831000150 | 34 | 132 | 3.2 | 8.0 | 0.00 | 0.00 | 0.00 | 46 | 1014.0 |
| 20260830235644 | 34 | 128 | 3.2 | 11.3 | 0.00 | 0.00 | 0.00 | 45 | 1014.0 |
| 20260830235138 | 34 | 162 | 3.2 | 11.3 | 0.00 | 0.00 | 0.00 | 46 | 1014.0 |
| 20260830234903 | 34 | 168 | 1.6 | 11.3 | 0.00 | 0.00 | 0.00 | 45 | 1014.1 |
| 20260830234125 | 34 | 128 | 3.2 | 14.5 | 0.00 | 0.00 | 0.00 | 46 | 1014.1 |
| 20260830233620 | 34 | 87 | 3.2 | 14.5 | 0.00 | 0.00 | 0.00 | 45 | 1014.2 |
| 20260830233114 | 34 | 146 | 3.2 | 14.5 | 0.00 | 0.00 | 0.00 | 45 | 1014.0 |
| 20260830232608 | 34 | 120 | 4.8 | 16.1 | 0.00 | 0.00 | 0.00 | 45 | 1014.1 |
| 20260830232334 | 35 | 136 | 3.2 | 16.1 | 0.00 | 0.00 | 0.00 | 45 | 1014.1 |
| 20260830231556 | 35 | 172 | 1.6 | 11.3 | 0.00 | 0.00 | 0.00 | 45 | 1014.1 |
| 20260830231049 | 35 | 146 | 1.6 | 8.0 | 0.00 | 0.00 | 0.00 | 47 | 1014.1 |
| 20260830230544 | 35 | 157 | 3.2 | 9.7 | 0.00 | 0.00 | 0.00 | 46 | 1014.1 |
| 20260830230038 | 35 | 100 | 4.8 | 11.3 | 0.00 | 0.00 | 0.00 | 46 | 1014.1 |
| 20260830225532 | 35 | 111 | 3.2 | 12.9 | 0.00 | 0.00 | 0.00 | 47 | 1014.2 |
| 20260830225025 | 35 | 104 | 3.2 | 12.9 | 0.00 | 0.00 | 0.00 | 47 | 1014.2 |
| 20260830224520 | 35 | 157 | 3.2 | 11.3 | 0.00 | 0.00 | 0.00 | 46 | 1014.3 |
| 20260830224014 | 35 | 153 | 4.8 | 11.3 | 0.00 | 0.00 | 0.00 | 45 | 1014.3 |
| 20260830223508 | 35 | 173 | 3.2 | 14.5 | 0.00 | 0.00 | 0.00 | 46 | 1014.3 |
| 20260830223002 | 35 | 113 | 4.8 | 14.5 | 0.00 | 0.00 | 0.00 | 46 | 1014.4 |
| 20260830222456 | 35 | 167 | 3.2 | 9.7 | 0.00 | 0.00 | 0.00 | 47 | 1014.5 |
| 20260830221949 | 35 | 134 | 4.8 | 11.3 | 0.00 | 0.00 | 0.00 | 48 | 1014.5 |
| 20260830221443 | 35 | 99 | 4.8 | 11.3 | 0.00 | 0.00 | 0.00 | 48 | 1014.5 |
| 20260830220943 | 34 | 121 | 3.2 | 12.9 | 0.00 | 0.00 | 0.00 | 49 | 1014.5 |
| 20260830220444 | 34 | 122 | 3.2 | 12.9 | 0.00 | 0.00 | 0.00 | 50 | 1014.4 |
| 20260830215944 | 34 | 190 | 3.2 | 14.5 | 0.00 | 0.00 | 0.00 | 51 | 1014.5 |
| 20260830215444 | 34 | 150 | 4.8 | 16.1 | 0.00 | 0.00 | 0.00 | 50 | 1014.6 |
| 20260830214943 | 35 | 111 | 4.8 | 16.1 | 0.00 | 0.00 | 0.00 | 48 | 1014.7 |
| 20260830214442 | 35 | 152 | 4.8 | 14.5 | 0.00 | 0.00 | 0.00 | 50 | 1014.7 |
| 20260830213942 | 35 | 97 | 3.2 | 12.9 | 0.00 | 0.00 | 0.00 | 49 | 1014.6 |
| 20260830213442 | 35 | 161 | 4.8 | 12.9 | 0.00 | 0.00 | 0.00 | 49 | 1014.8 |
| 20260830212942 | 35 | 127 | 4.8 | 14.5 | 0.00 | 0.00 | 0.00 | 49 | 1014.9 |
| 20260830212442 | 35 | 95 | 3.2 | 12.9 | 0.00 | 0.00 | 0.00 | 49 | 1014.8 |
| 20260830211938 | 35 | 153 | 3.2 | 12.9 | 0.00 | 0.00 | 0.00 | 49 | 1014.9 |
| 20260830211708 | 35 | 344 | 1.6 | 11.3 | 0.00 | 0.00 | 0.00 | 49 | 1014.9 |
| 20260830210938 | 35 | 142 | 1.6 | 11.3 | 0.00 | 0.00 | 0.00 | 50 | 1015.0 |
| 20260830210709 | 34 | 163 | 3.2 | 9.7 | 0.00 | 0.00 | 0.00 | 50 | 1015.2 |
| 20260830205938 | 33 | 116 | 3.2 | 11.3 | 0.00 | 0.00 | 0.00 | 50 | 1015.2 |
| 20260830205440 | 33 | 123 | 4.8 | 17.7 | 0.00 | 0.00 | 0.00 | 50 | 1015.4 |
| 20260830205212 | 33 | 103 | 3.2 | 17.7 | 0.00 | 0.00 | 0.00 | 51 | 1015.5 |
| 20260830204712 | 33 | 74 | 3.2 | 11.3 | 0.00 | 0.00 | 0.00 | 51 | 1015.5 |
| 20260830203941 | 34 | 138 | 4.8 | 16.1 | 0.00 | 0.00 | 0.00 | 50 | 1015.7 |
| 20260830202928 | 35 | 153 | 3.2 | 11.3 | 0.00 | 0.00 | 0.00 | 51 | 1015.8 |
| 20260830202422 | 35 | 187 | 3.2 | 16.1 | 0.00 | 0.00 | 0.00 | 50 | 1015.8 |
| 20260830201915 | 35 | 182 | 3.2 | 16.1 | 0.00 | 0.00 | 0.00 | 50 | 1016.1 |
| 20260830201414 | 35 | 230 | 3.2 | 14.5 | 0.00 | 0.00 | 0.00 | 49 | 1016.1 |
| 20260830200914 | 34 | 150 | 4.8 | 20.9 | 0.00 | 0.00 | 0.00 | 50 | 1016.2 |
| 20260830200644 | 34 | 246 | 3.2 | 20.9 | 0.00 | 0.00 | 0.00 | 51 | 1016.3 |
| 20260830200144 | 34 | 194 | 3.2 | 14.5 | 0.00 | 0.00 | 0.00 | 52 | 1016.5 |
| 20260830195414 | 34 | 94 | 3.2 | 11.3 | 0.00 | 0.00 | 0.00 | 51 | 1016.4 |
| 20260830194914 | 34 | 113 | 3.2 | 20.9 | 0.00 | 0.00 | 0.00 | 51 | 1016.6 |
| 20260830194413 | 34 | 82 | 3.2 | 20.9 | 0.00 | 0.00 | 0.00 | 51 | 1016.7 |
| 20260830193913 | 34 | 119 | 3.2 | 14.5 | 0.00 | 0.00 | 0.00 | 51 | 1016.8 |
| 20260830193413 | 34 | 213 | 3.2 | 14.5 | 0.00 | 0.00 | 0.00 | 51 | 1016.9 |
| 20260830192913 | 33 | 155 | 1.6 | 12.9 | 0.00 | 0.00 | 0.00 | 53 | 1016.9 |
| 20260830192413 | 33 | 113 | 1.6 | 11.3 | 0.00 | 0.00 | 0.00 | 53 | 1016.9 |
| 20260830191914 | 33 | 203 | 3.2 | 14.5 | 0.00 | 0.00 | 0.00 | 55 | 1017.0 |
| 20260830191413 | 33 | 147 | 3.2 | 14.5 | 0.00 | 0.00 | 0.00 | 56 | 1017.1 |
| 20260830190913 | 32 | 154 | 4.8 | 14.5 | 0.00 | 0.00 | 0.00 | 57 | 1017.3 |
| 20260830190413 | 32 | 101 | 4.8 | 11.3 | 0.00 | 0.00 | 0.00 | 56 | 1017.3 |
| 20260830185908 | 33 | 117 | 4.8 | 14.5 | 0.00 | 0.00 | 0.00 | 56 | 1017.4 |
| 20260830185633 | 33 | 224 | 3.2 | 14.5 | 0.00 | 0.00 | 0.00 | 56 | 1017.4 |
| 20260830184855 | 33 | 132 | 3.2 | 12.9 | 0.00 | 0.00 | 0.00 | 56 | 1017.4 |
| 20260830184349 | 32 | 92 | 3.2 | 12.9 | 0.00 | 0.00 | 0.00 | 57 | 1017.5 |
| 20260830183843 | 32 | 227 | 3.2 | 11.3 | 0.00 | 0.00 | 0.00 | 56 | 1017.5 |
| 20260830183336 | 32 | 122 | 3.2 | 11.3 | 0.00 | 0.00 | 0.00 | 56 | 1017.7 |
| 20260830182831 | 32 | 266 | 3.2 | 11.3 | 0.00 | 0.00 | 0.00 | 59 | 1017.8 |
| 20260830182324 | 32 | 146 | 3.2 | 11.3 | 0.00 | 0.00 | 0.00 | 60 | 1017.9 |
| 20260830181818 | 32 | 290 | 3.2 | 11.3 | 0.00 | 0.00 | 0.00 | 60 | 1017.9 |
| 20260830181544 | 32 | 288 | 4.8 | 12.9 | 0.00 | 0.00 | 0.00 | 58 | 1018.2 |
| 20260830180808 | 32 | 171 | 4.8 | 17.7 | 0.00 | 0.00 | 0.00 | 60 | 1018.3 |
| 20260830180301 | 32 | 170 | 3.2 | 17.7 | 0.00 | 0.00 | 0.00 | 59 | 1018.4 |
| 20260830175755 | 32 | 259 | 3.2 | 9.7 | 0.00 | 0.00 | 0.00 | 59 | 1018.5 |
| 20260830175520 | 32 | 261 | 3.2 | 9.7 | 0.00 | 0.00 | 0.00 | 60 | 1018.5 |
| 20260830174743 | 32 | 213 | 3.2 | 12.9 | 0.00 | 0.00 | 0.00 | 61 | 1018.5 |
| 20260830174237 | 32 | 176 | 4.8 | 16.1 | 0.00 | 0.00 | 0.00 | 62 | 1018.6 |
| 20260830174001 | 32 | 96 | 4.8 | 16.1 | 0.00 | 0.00 | 0.00 | 60 | 1018.6 |
| 20260830173225 | 32 | 184 | 3.2 | 14.5 | 0.00 | 0.00 | 0.00 | 60 | 1018.4 |
| 20260830172719 | 31 | 161 | 3.2 | 11.3 | 0.00 | 0.00 | 0.00 | 63 | 1018.6 |
| 20260830172213 | 31 | 138 | 3.2 | 11.3 | 0.00 | 0.00 | 0.00 | 64 | 1018.6 |
| 20260830171707 | 31 | 259 | 3.2 | 11.3 | 0.00 | 0.00 | 0.00 | 63 | 1018.7 |
| 20260830171201 | 31 | 134 | 1.6 | 11.3 | 0.00 | 0.00 | 0.00 | 64 | 1018.7 |
| 20260830170655 | 31 | 119 | 3.2 | 11.3 | 0.00 | 0.00 | 0.00 | 65 | 1018.7 |
| 20260830170149 | 31 | 114 | 4.8 | 12.9 | 0.00 | 0.00 | 0.00 | 65 | 1018.8 |
| 20260830165643 | 31 | 162 | 3.2 | 14.5 | 0.00 | 0.00 | 0.00 | 64 | 1018.9 |
| 20260830165137 | 31 | 144 | 1.6 | 14.5 | 0.00 | 0.00 | 0.00 | 66 | 1018.9 |
| 20260830164630 | 31 | 290 | 3.2 | 9.7 | 0.00 | 0.00 | 0.00 | 66 | 1018.9 |
| 20260830164125 | 31 | 159 | 3.2 | 11.3 | 0.00 | 0.00 | 0.00 | 66 | 1019.0 |
| 20260830163619 | 30 | 154 | 1.6 | 11.3 | 0.00 | 0.00 | 0.00 | 67 | 1019.0 |
| 20260830163343 | 30 | 209 | 1.6 | 8.0 | 0.00 | 0.00 | 0.00 | 69 | 1018.9 |
| 20260830162607 | 30 | 280 | 1.6 | 8.0 | 0.00 | 0.00 | 0.00 | 69 | 1018.9 |
| 20260830162101 | 30 | 261 | 1.6 | 6.4 | 0.00 | 0.00 | 0.00 | 70 | 1018.9 |
| 20260830161555 | 30 | 271 | 1.6 | 4.8 | 0.00 | 0.00 | 0.00 | 71 | 1018.9 |
| 20260830161319 | 29 | 279 | 1.6 | 6.4 | 0.00 | 0.00 | 0.00 | 73 | 1018.9 |
| 20260830160543 | 29 | 248 | 1.6 | 6.4 | 0.00 | 0.00 | 0.00 | 74 | 1018.9 |
| 20260830160037 | 28 | 244 | 1.6 | 8.0 | 0.00 | 0.00 | 0.00 | 74 | 1019.0 |
| 20260830155531 | 28 | 166 | 1.6 | 9.7 | 0.00 | 0.00 | 0.00 | 73 | 1019.0 |
| 20260830155024 | 29 | 157 | 3.2 | 12.9 | 0.00 | 0.00 | 0.00 | 73 | 1019.1 |
| 20260830154518 | 29 | 189 | 3.2 | 11.3 | 0.00 | 0.00 | 0.00 | 73 | 1019.2 |
| 20260830154012 | 29 | 169 | 3.2 | 11.3 | 0.00 | 0.00 | 0.00 | 74 | 1019.2 |
| 20260830153507 | 29 | 209 | 3.2 | 12.9 | 0.00 | 0.00 | 0.00 | 74 | 1019.1 |
| 20260830153001 | 28 | 237 | 3.2 | 12.9 | 0.00 | 0.00 | 0.00 | 74 | 1019.1 |
| 20260830152455 | 28 | 168 | 3.2 | 12.9 | 0.00 | 0.00 | 0.00 | 76 | 1019.0 |
| 20260830151949 | 28 | 214 | 3.2 | 12.9 | 0.00 | 0.00 | 0.00 | 76 | 1018.9 |
| 20260830151443 | 28 | 202 | 3.2 | 12.9 | 0.00 | 0.00 | 0.00 | 75 | 1019.0 |
| 20260830150937 | 28 | 239 | 1.6 | 12.9 | 0.00 | 0.00 | 0.00 | 76 | 1019.0 |
| 20260830150431 | 28 | 216 | 1.6 | 11.3 | 0.00 | 0.00 | 0.00 | 77 | 1018.9 |
| 20260830145924 | 28 | 194 | 1.6 | 6.4 | 0.00 | 0.00 | 0.00 | 78 | 1019.0 |
| 20260830145419 | 27 | 189 | 3.2 | 14.5 | 0.00 | 0.00 | 0.00 | 79 | 1019.0 |
| 20260830144915 | 27 | 269 | 3.2 | 14.5 | 0.00 | 0.00 | 0.00 | 80 | 1019.0 |
| 20260830144414 | 27 | 227 | 3.2 | 12.9 | 0.00 | 0.00 | 0.00 | 80 | 1019.0 |
| 20260830144147 | 27 | 221 | 1.6 | 11.3 | 0.00 | 0.00 | 0.00 | 82 | 1019.0 |
| 20260830143414 | 27 | 207 | 1.6 | 11.3 | 0.00 | 0.00 | 0.00 | 83 | 1019.0 |
| 20260830143145 | 26 | 266 | 1.6 | 6.4 | 0.00 | 0.00 | 0.00 | 83 | 1018.8 |
| 20260830142414 | 26 | 270 | 1.6 | 6.4 | 0.00 | 0.00 | 0.00 | 82 | 1018.8 |
| 20260830141914 | 26 | 167 | 1.6 | 6.4 | 0.00 | 0.00 | 0.00 | 83 | 1018.8 |
| 20260830141414 | 26 | 164 | 0.0 | 6.4 | 0.00 | 0.00 | 0.00 | 85 | 1018.9 |
| 20260830140914 | 26 | 164 | 1.6 | 6.4 | 0.00 | 0.00 | 0.00 | 86 | 1018.9 |
| 20260830140410 | 25 | 164 | 1.6 | 6.4 | 0.00 | 0.00 | 0.00 | 86 | 1018.9 |
| 20260830135911 | 25 | 165 | 0.0 | 6.4 | 0.00 | 0.00 | 0.00 | 87 | 1019.0 |
| 20260830135411 | 25 | 165 | 1.6 | 8.0 | 0.00 | 0.00 | 0.00 | 87 | 1018.9 |